Venerdi 17 Settembre 2021

 
Calliano - Provincia di Trento

189 mslm

45° 55' 59'' N 11° 05' 53'' E

Pagine realizzate e gestite da Andrea Pernecher

 

Tutti gli orari sono riferiti all'ora solare (GMT+1h)

>stazione meteo :: i dati del giorno  

 Dati relativi a VENERDI 17 SETTEMBRE 2021 ORE 19.29
 

 TEMPERATURA

22,6 °C

 

 ESCURS. TERMICA 10,5 °C

 

 

 TEMPERATURA MIN

17,3 °C

alle 06:34

 

 TEMPERATURA MAX 27,8 °C

alle 15:40

 

 TEMP.MEDIA INTEG.

21.4 °C

       
 

 PRESSIONE

1.008 mbar

 

 UMIDITA' 45 %

 

 PIOGGIA

13,2 mm

 

 INTENS. PIOGGIA 0,0 mm/h

 

 VENTO MAX

5,7 m/s

N

 

 DEW POINT

10,1 °C

 
Immagini WebCam
ORE 8.00 ORE 12.00 ORE 16.00

> visualizza webcam 24 ore

 

 Dettaglio rilevazioni di Venerdi 17 Settembre 2021 (ogni 15 minuti)
Ora Temperatura °C Umidità R. % Pressione mbar Vento m/s Dew Point °C Pioggia totale caduta mm Intensità della pioggia mm/h
  TEMPERATURA UMIDITA' PRESSIONE VENTO DEW POINT PIOGGIA INTENS. PIOGGIA
19:15 23,1 44 1.007 1,4 WSW 10,2 13,2 0,0
19:00 23,6 43 1.007 1,4 SSW 10,3 13,2 0,0
18:45 23,8 41 1.007 1,8 W 9,8 13,2 0,0
18:30 24,0 38 1.007 2,4 WSW 8,8 13,2 0,0
18:15 24,3 37 1.007 2,6 W 8,7 13,2 0,0
18:00 24,7 36 1.006 1,8 WNW 8,6 13,2 0,0
17:45 25,1 36 1.006 3,9 W 9,0 13,2 0,0
17:30 25,5 36 1.006 3,9 WNW 9,3 13,2 0,0
17:15 25,9 35 1.006 2,6 WNW 9,3 13,2 0,0
17:00 26,5 35 1.006 3,2 NW 9,8 13,2 0,0
16:45 26,7 34 1.006 2,6 W 9,6 13,2 0,0
16:30 27,0 33 1.006 2,6 WSW 9,4 13,2 0,0
16:15 27,3 33 1.006 3,6 W 9,6 13,2 0,0
16:00 27,8 32 1.006 3,6 WNW 9,6 13,2 0,0
15:45 27,8 31 1.006 2,4 WNW 9,1 13,2 0,0
15:30 27,3 31 1.006 2,4 WSW 8,7 13,2 0,0
15:15 26,7 31 1.006 0,0 WNW 8,2 13,2 0,0
15:00 26,8 31 1.006 1,6 W 8,3 13,2 0,0
14:45 26,9 33 1.007 1,4 WSW 9,3 13,2 0,0
14:30 26,4 34 1.007 1,4 W 9,3 13,2 0,0
14:15 26,8 33 1.007 2,4 W 9,2 13,2 0,0
14:00 27,1 35 1.007 2,6 WNW 10,3 13,2 0,0
13:45 27,0 37 1.007 2,4 SW 11,1 13,2 0,0
13:30 26,5 40 1.007 2,2 SW 11,8 13,2 0,0
13:15 25,9 42 1.007 0,0 WSW 12,0 13,2 0,0
13:00 25,2 42 1.008 0,0 W 11,4 13,2 0,0
12:45 24,7 47 1.008 0,0 SW 12,6 13,2 0,0
12:30 24,1 49 1.008 1,0 SW 12,7 13,2 0,0
12:15 23,6 51 1.008 1,4 WSW 12,9 13,2 0,0
12:00 23,2 52 1.008 1,2 WSW 12,8 13,2 0,0
11:45 22,8 56 1.009 2,4 SSW 13,6 13,2 0,0
11:30 22,4 61 1.009 1,8 S 14,5 13,2 0,0
11:15 22,3 70 1.009 1,8 S 16,6 13,2 0,0
11:00 21,9 80 1.009 1,2 N 18,3 13,2 0,0
10:45 21,2 85 1.009 1,0 NNW 18,6 13,2 0,0
10:30 20,7 86 1.009 0,0 WSW 18,3 13,2 0,0
10:15 19,8 86 1.009 0,0 E 17,4 13,2 0,0
10:00 19,6 86 1.009 1,4 NNW 17,2 13,2 0,0
09:45 19,6 86 1.009 0,0 NE 17,2 13,2 0,0
09:30 19,2 86 1.009 0,0 NE 16,8 13,2 0,0
09:15 19,0 86 1.009 0,0 ENE 16,6 13,2 0,0
09:00 18,7 86 1.009 0,0 ESE 16,3 13,2 0,0
08:45 18,5 85 1.009 0,0 NE 15,9 13,2 0,0
08:30 18,4 85 1.009 0,0 WSW 15,8 13,2 0,0
08:15 18,2 85 1.009 0,0 WSW 15,6 13,2 0,0
08:00 18,1 85 1.009 0,0 WSW 15,5 13,2 0,0
07:45 17,9 85 1.009 1,4 WSW 15,3 13,2 0,0
07:30 17,6 84 1.009 1,4 S 14,9 13,2 0,0
07:15 17,5 84 1.009 0,0 N 14,8 13,2 0,0
07:00 17,5 84 1.009 1,4 N 14,8 13,2 0,0
06:45 17,4 83 1.009 1,6 ENE 14,5 13,2 0,0
06:30 17,4 83 1.009 1,2 ENE 14,5 13,2 0,0
06:15 17,5 83 1.009 0,0 SW 14,6 13,2 0,0
06:00 17,4 83 1.009 0,0 SW 14,5 13,2 0,0
05:45 17,5 83 1.009 0,0 SW 14,6 13,2 0,0
05:30 17,5 83 1.009 0,0 SW 14,6 13,2 0,0
05:15 17,5 83 1.009 0,0 SW 14,6 13,2 0,0
05:00 17,6 83 1.009 0,0 SW 14,7 13,2 0,0
04:45 17,6 83 1.009 1,0 SW 14,7 13,2 0,0
04:30 17,6 83 1.009 1,4 SSW 14,7 13,2 0,0
04:15 17,7 83 1.009 1,6 WSW 14,8 13,2 0,0
04:00 17,7 82 1.009 2,4 SSW 14,6 13,2 0,0
03:45 17,7 82 1.009 2,0 SSW 14,6 13,2 0,0
03:30 17,8 82 1.009 1,4 SW 14,7 13,2 0,9
03:15 17,8 82 1.010 1,6 SW 14,7 13,0 0,0
03:00 17,9 82 1.010 2,0 SSW 14,8 13,0 0,0
02:45 18,0 82 1.010 1,6 SW 14,9 13,0 2,0
02:30 18,1 82 1.010 2,2 SSW 15,0 12,3 3,3
02:15 18,2 81 1.010 1,4 W 14,9 11,2 6,7
02:00 18,3 81 1.010 2,4 W 15,0 9,5 3,3
01:45 18,7 81 1.010 3,6 NW 15,4 8,3 6,7
01:30 19,5 81 1.010 0,0 NNW 16,2 7,5 6,7
01:15 19,5 81 1.010 0,0 SE 16,2 5,5 3,3
01:00 19,5 81 1.010 0,0 SE 16,2 4,7 3,3
00:45 19,5 80 1.010 0,0 SE 16,0 4,0 3,3
00:30 19,6 80 1.011 0,0 NE 16,1 3,2 6,7
00:15 19,6 80 1.011 0,0 NE 16,1 2,2 3,3
00:00 19,7 80 1.011 0,0 SSE 16,2 0,0 0,0

 

 

Stampa paginastampa    torna in cima

 2002-2021 osservatoriocalliano.it